Back to catalog

OPTUS A2

AUSSAT 2

AliveCommunicationsGEO
NORAD 16275·PAYLOAD·🇦🇺 Australia

Launched Nov 27, 1985 from Cape Canaveral Space Force Station

Loading…

TLE

FreshSource: Space-Track

Epoch: Sep 14, 2026, 00:01 UTC

1 16275U 85109C   26257.00120975 -.00000220  00000-0  00000-0 0  9995
2 16275  13.2921 339.4875 0005335 298.5122  56.3994  0.99953865 47411

Track OPTUS A2 in real time with AllMySat

Download on the App Store